[[{"header":{"parameterUnit":"m.s-1","parameterCategory":1,"la1":30.2991,"la2":30.254,"lo1":-89.0895,"lo2":-89.0444,"dy":0.0017,"dx":0.0017,"nx":28,"ny":28,"refTime":"2024-09-03T09:00:00:Z","depth":0,"parameterNumber":2,"parameterNumberName":"U-component_of_WINDS"},"data":[0,0,0,0,0,0,0,0,0,0,0,0,0,0,0,0,0,0,0,0,0,0,0,0,0,0,0,0,0,0,0,0,0,0,0,0,0,0,0,0,0,0,0,0,0,0,0,0,0,0,0,0,0,0,0,0,0,0,-6.1721,-6.1723,0,-6.1965,-6.1968,-6.197,-6.1953,-6.195,-6.1946,-6.1943,-6.2186,-6.2195,-6.2205,0,0,0,0,0,0,0,0,0,0,0,0,0,-6.1233,-6.1242,-6.172,-6.1724,-6.1727,-6.1965,-6.1968,-6.1971,-6.1954,-6.195,-6.1945,-6.1941,-6.2182,-6.2194,-6.2206,0,0,0,0,0,0,0,0,0,0,0,0,0,-6.1458,-6.1245,-6.172,-6.1747,-6.1752,-6.1964,-6.1968,-6.1972,-6.1955,-6.195,-6.1944,-6.1939,-6.2179,-6.2193,-6.2207,-6.2406,0,0,-6.2252,-6.2259,0,0,0,0,0,0,0,0,-6.1445,-6.1476,-6.174,-6.1745,-6.1751,-6.1923,-6.1885,-6.2117,-6.1956,-6.1878,-6.1943,-6.1936,-6.2102,-6.2123,-6.218,-6.2418,-6.2428,-6.2254,-6.2263,-6.2269,-6.2273,0,0,0,0,0,0,0,-6.1429,-6.1465,-6.1817,-6.1744,-6.1751,-6.1745,-6.1771,-6.1929,-6.2017,-6.1884,-6.1883,-6.1913,-6.2104,-6.2166,-6.2186,-6.2432,-6.2253,-6.2266,-6.2276,-6.2281,-6.2844,-6.2849,0,0,0,0,0,0,-6.1409,-6.1452,-6.1809,-6.1824,-6.1582,-6.1758,-6.1787,-6.1873,-6.2015,-6.2032,-6.1917,-6.1911,-6.2144,-6.2169,-6.2194,-6.2436,-6.2269,-6.2283,-6.2291,-6.2838,-6.2845,-6.2852,0,0,0,0,0,0,-6.1398,-6.1441,-6.1799,-6.1638,-6.1684,-6.1772,-6.1869,-6.1881,-6.1943,-6.2041,-6.2055,-6.1965,-6.214,-6.2174,-6.2354,-6.2444,-6.2289,-6.2303,-6.283,-6.284,-6.2848,-6.292,0,0,0,0,0,0,-6.1384,-6.1437,-6.1515,-6.164,-6.1692,-6.1957,-6.1875,-6.189,-6.1969,-6.1964,-6.2089,-6.2104,-6.2139,-6.2332,-6.2369,-6.2461,-6.2314,-6.2823,-6.2835,-6.2845,-6.291,-6.293,-6.2948,0,0,0,0,0,-6.1367,-6.1524,-6.1519,-6.1562,-6.1792,-6.1962,-6.1992,-6.203,-6.1977,-6.2054,-6.2117,-6.21,-6.2429,-6.2351,-6.2392,-6.249,-6.2817,-6.2831,-6.2845,-6.2901,-6.2926,-6.2947,0,0,0,0,0,0,-6.1403,-6.1541,-6.1537,-6.1739,-6.184,-6.1959,-6.2058,-6.2055,-6.2171,-6.216,-6.2201,-6.223,-6.2411,-6.2469,-6.238,-6.269,-6.2616,-6.2638,-6.2645,-6.2669,-6.2688,-6.2668,-6.2327,0,0,0,0,0,-6.1436,-6.1565,-6.1677,-6.1845,-6.1896,-6.1969,-6.2044,-6.2066,-6.217,-6.2212,-6.2287,-6.2388,-6.2513,-6.2595,-6.2716,-6.2919,-6.2945,-6.3007,-6.3026,-6.3041,-6.3059,-6.3169,-6.3198,-6.2897,-6.2897,-6.2896,0,0,-6.1502,-6.1593,-6.1672,-6.1854,-6.1935,-6.2065,-6.2004,-6.2145,-6.2242,-6.2232,-6.2407,-6.2467,-6.2581,-6.2774,-6.2862,-6.2828,-6.3149,-6.3059,-6.307,-6.308,-6.3186,-6.3215,-6.324,-6.2906,-6.2904,-6.2903,0,0,-6.1689,-6.1773,-6.1921,-6.2004,-6.2127,-6.2175,-6.2211,-6.2332,-6.2372,-6.2549,-6.2545,-6.266,-6.2876,-6.2957,-6.3027,-6.3248,-6.3236,-6.3287,-6.3384,-6.3492,-6.3515,-6.3536,-6.3613,-6.364,-6.3305,-6.3305,-6.3305,0,-6.1755,-6.1955,-6.1997,-6.214,-6.2219,-6.2221,-6.237,-6.2447,-6.2603,-6.2657,-6.2617,-6.2889,-6.2966,-6.3177,-6.3231,-6.3289,-6.3328,-6.3271,-6.3509,-6.3531,-6.3551,-6.3624,-6.3653,-6.331,-6.331,-6.3309,-6.3309,0,-6.2029,-6.2167,-6.2272,-6.2425,-6.2517,-6.2662,-6.2725,-6.2812,-6.2827,-6.2878,-6.3058,-6.3152,-6.3291,-6.3344,-6.3358,-6.3557,-6.3531,-6.35,-6.3426,-6.3584,-6.3653,-6.3682,-6.3317,-6.3316,-6.3314,-6.3313,0,0,-6.2242,-6.242,-6.2457,-6.2526,-6.2664,-6.277,-6.2916,-6.3055,-6.3128,-6.3237,-6.3357,-6.3542,-6.3514,-6.3593,-6.3617,-6.3712,-6.3879,-6.3669,-6.3672,-6.3702,-6.4102,-6.4122,-6.4154,-6.3873,-6.3879,-6.3883,-6.4091,0,-6.2441,-6.2701,-6.2744,-6.297,-6.3097,-6.3102,-6.3228,-6.3325,-6.3378,-6.3492,-6.3549,-6.3678,-6.3634,-6.3681,-6.3776,-6.3838,-6.3959,-6.3824,-6.3983,-6.3988,-6.3951,-6.4191,-6.4213,-6.4404,-6.4119,-6.4123,-6.4127,0,-6.2707,-6.2825,-6.3065,-6.3186,-6.3241,-6.3354,-6.3485,-6.3596,-6.3705,-6.3737,-6.3827,-6.384,-6.3989,-6.3912,-6.4116,-6.4023,-6.4091,-6.4132,-6.4141,-6.4154,-6.4064,-6.4207,-6.4466,-6.4493,-6.4171,-6.4167,-6.4164,0,-6.2836,-6.3055,-6.3226,-6.3286,-6.3432,-6.3511,-6.3575,-6.368,-6.3762,-6.3876,-6.3929,-6.4059,-6.4129,-6.4228,-6.4275,-6.4215,-6.4476,-6.4402,-6.4503,-6.4502,-6.4555,-6.455,-6.4825,-6.4604,-6.4604,-6.4603,-6.4603,0,-6.3052,-6.3197,-6.3286,-6.3391,-6.3554,-6.3603,-6.3762,-6.3824,-6.3918,-6.4034,-6.4046,-6.4153,-6.4211,-6.4327,-6.4365,-6.4527,-6.4559,-6.4587,-6.4594,-6.4584,-6.458,-6.4626,-6.4613,-6.4611,-6.4609,-6.4608,-6.4607,0,-6.322,-6.3286,-6.3473,-6.3598,-6.3633,-6.3747,-6.3852,-6.3954,-6.4008,-6.4154,-6.4191,-6.4274,-6.4412,-6.447,-6.4638,-6.4663,-6.4848,-6.4848,-6.4812,-6.4813,-6.491,-6.4899,-6.5221,-6.5265,-6.5019,-6.5021,-6.5023,0,-6.3352,-6.3464,-6.3602,-6.3682,-6.3749,-6.3878,-6.3961,-6.4014,-6.41,-6.4236,-6.432,-6.4459,-6.4571,-6.479,-6.4864,-6.4993,-6.4993,-6.5098,-6.5012,-6.4998,-6.4991,-6.4983,-6.4993,-6.5111,-6.5114,-6.5116,-6.5118,0,-6.3577,-6.3605,-6.3727,-6.3861,-6.3961,-6.4069,-6.4173,-6.4237,-6.4306,-6.4402,-6.4545,-6.4633,-6.4806,-6.4942,-6.5076,-6.5139,-6.5139,-6.5145,-6.5174,-6.5163,-6.5136,-6.5149,-6.4851,-6.5136,-6.5134,-6.5133,-6.5132,-6.5131,-6.373,-6.383,-6.3943,-6.4078,-6.4163,-6.4261,-6.4363,-6.4431,-6.4551,-6.4698,-6.4722,-6.4873,-6.498,-6.516,-6.523,-6.5347,-6.532,-6.5364,-6.5374,-6.5383,-6.5388,-6.5121,-6.5372,-6.5371,-6.5371,-6.5371,-6.537,0,-6.3953,-6.4027,-6.4152,-6.4299,-6.4405,-6.4401,-6.4517,-6.4605,-6.4739,-6.4841,-6.4953,-6.5116,-6.5249,-6.5335,-6.5468,-6.5546,-6.5549,-6.5579,-6.5571,-6.5586,-6.5406,-6.5365,-6.5574,-6.5574,-6.5574,-6.5574,-6.5574,-6.5574,-6.4081,-6.425,-6.4292,-6.4503,-6.4575,-6.4726,-6.4792,-6.4882,-6.4964,-6.5146,-6.5258,-6.5314,-6.5409,-6.5551,-6.5672,-6.5693,-6.574,-6.5771,-6.5791,-6.562,-6.5599,-6.5578,-6.554,-6.5782,-6.5782,-6.5961,-6.5962,-6.5964]},{"header":{"parameterUnit":"m.s-1","parameterCategory":1,"la1":30.2991,"la2":30.254,"lo1":-89.0895,"lo2":-89.0444,"dy":0.0017,"dx":0.0017,"nx":28,"ny":28,"refTime":"2024-09-03T09:00:00:Z","depth":0,"parameterNumber":3,"parameterNumberName":"V-component_of_WINDS"},"data":[0,0,0,0,0,0,0,0,0,0,0,0,0,0,0,0,0,0,0,0,0,0,0,0,0,0,0,0,0,0,0,0,0,0,0,0,0,0,0,0,0,0,0,0,0,0,0,0,0,0,0,0,0,0,0,0,0,0,0.1794,0.1793,0,0.1714,0.1713,0.1712,0.1711,0.1712,0.1713,0.1714,0.1623,0.162,0.1617,0,0,0,0,0,0,0,0,0,0,0,0,0,0.1938,0.1936,0.1794,0.1793,0.1792,0.1714,0.1713,0.1712,0.1711,0.1712,0.1713,0.1714,0.1624,0.162,0.1616,0,0,0,0,0,0,0,0,0,0,0,0,0,0.1869,0.1935,0.1794,0.1782,0.178,0.1715,0.1713,0.1712,0.1711,0.1712,0.1714,0.1715,0.1626,0.1621,0.1616,0.1554,0,0,0.16,0.1598,0,0,0,0,0,0,0,0,0.1873,0.1863,0.1785,0.1783,0.1781,0.1724,0.1731,0.1658,0.171,0.1737,0.1714,0.1716,0.1655,0.1648,0.1629,0.155,0.1546,0.16,0.1597,0.1595,0.1593,0,0,0,0,0,0,0,0.1877,0.1867,0.1762,0.1784,0.1781,0.1779,0.177,0.1717,0.1688,0.1735,0.1734,0.1725,0.1654,0.1634,0.1627,0.1544,0.16,0.1596,0.1592,0.159,0.141,0.1409,0,0,0,0,0,0,0.1886,0.1871,0.1765,0.176,0.1832,0.1775,0.1766,0.1741,0.1689,0.1682,0.1724,0.1726,0.1642,0.1633,0.1624,0.1548,0.1595,0.159,0.1587,0.1412,0.141,0.1408,0,0,0,0,0,0,0.1889,0.1876,0.1768,0.1815,0.1801,0.1771,0.1743,0.1738,0.1718,0.1681,0.1675,0.1709,0.1643,0.1631,0.1572,0.1545,0.1588,0.1583,0.1414,0.1411,0.1409,0.1396,0,0,0,0,0,0,0.1893,0.1877,0.1855,0.1815,0.1799,0.172,0.1741,0.1736,0.1711,0.1712,0.1665,0.1659,0.1643,0.158,0.1567,0.1539,0.1579,0.1416,0.1413,0.141,0.1399,0.1393,0.1389,0,0,0,0,0,0.1898,0.1852,0.1854,0.1841,0.1771,0.1718,0.1709,0.1694,0.1708,0.1685,0.1661,0.166,0.155,0.1574,0.1559,0.1529,0.1418,0.1414,0.141,0.1401,0.1394,0.1389,0,0,0,0,0,0,0.1887,0.1847,0.1848,0.1789,0.1757,0.1718,0.1688,0.1687,0.1648,0.1651,0.1631,0.162,0.1562,0.154,0.1566,0.1467,0.1485,0.1479,0.1483,0.1477,0.1472,0.1478,0.1575,0,0,0,0,0,0.1878,0.1841,0.1807,0.1758,0.1743,0.1718,0.1694,0.1686,0.1651,0.1637,0.1609,0.1573,0.153,0.1502,0.1461,0.1396,0.1385,0.1368,0.1363,0.1359,0.1353,0.1317,0.1309,0.1395,0.1395,0.1395,0,0,0.1858,0.1832,0.1809,0.1755,0.173,0.169,0.1706,0.1663,0.1633,0.1629,0.1573,0.1551,0.151,0.1448,0.1419,0.1427,0.1327,0.1354,0.1351,0.1347,0.1312,0.1304,0.1296,0.1392,0.1393,0.1393,0,0,0.1802,0.1779,0.1736,0.1711,0.1674,0.1658,0.1648,0.1609,0.1595,0.1539,0.1536,0.1499,0.1426,0.1397,0.1372,0.1307,0.1305,0.1294,0.1267,0.1232,0.1225,0.1219,0.1195,0.1187,0.1288,0.1288,0.1288,0,0.1781,0.1724,0.1712,0.167,0.1646,0.1645,0.16,0.1575,0.1525,0.1508,0.1519,0.1428,0.14,0.1332,0.1316,0.1297,0.1283,0.1299,0.1228,0.1221,0.1215,0.1193,0.1184,0.1287,0.1287,0.1287,0.1287,0,0.17,0.166,0.1629,0.1585,0.1557,0.1513,0.1494,0.1467,0.1461,0.1444,0.1386,0.1353,0.1306,0.1289,0.1281,0.1219,0.1226,0.1233,0.1251,0.1206,0.1185,0.1176,0.1285,0.1286,0.1286,0.1286,0,0,0.1632,0.1584,0.1573,0.1553,0.1513,0.148,0.1436,0.1393,0.137,0.1336,0.1297,0.1237,0.1244,0.1216,0.1206,0.1175,0.1126,0.1186,0.1184,0.1175,0.1055,0.1049,0.104,0.1125,0.1123,0.1122,0.1058,0,0.1571,0.1496,0.1486,0.1418,0.1381,0.138,0.1342,0.1312,0.1295,0.1259,0.1239,0.1196,0.1209,0.1192,0.1162,0.1138,0.1101,0.1143,0.1087,0.1085,0.1097,0.1028,0.1022,0.0963,0.1049,0.1048,0.1047,0,0.149,0.1457,0.1387,0.1353,0.1337,0.1303,0.1263,0.1229,0.1195,0.1184,0.1155,0.1149,0.1101,0.1123,0.1057,0.1086,0.1062,0.1047,0.1045,0.1037,0.1063,0.1018,0.0944,0.0935,0.1033,0.1035,0.1035,0,0.1447,0.1385,0.1335,0.1318,0.1278,0.1254,0.1235,0.1203,0.1178,0.1142,0.1125,0.1083,0.106,0.1026,0.1008,0.1026,0.0943,0.0963,0.0931,0.0932,0.0912,0.0914,0.0832,0.0899,0.0899,0.0899,0.09,0,0.1379,0.1336,0.1316,0.1285,0.1237,0.1225,0.1176,0.1158,0.1129,0.1093,0.1089,0.1055,0.1034,0.0997,0.0982,0.0929,0.0918,0.0907,0.0903,0.0907,0.0908,0.089,0.0893,0.0897,0.0898,0.0898,0.0898,0,0.1323,0.1308,0.1254,0.1221,0.1211,0.1177,0.1148,0.1117,0.1101,0.1056,0.1044,0.1018,0.0974,0.0954,0.0898,0.0888,0.0827,0.0827,0.084,0.0838,0.0807,0.081,0.071,0.0696,0.0774,0.0773,0.0772,0,0.128,0.1248,0.1213,0.119,0.1172,0.1135,0.111,0.1097,0.1071,0.1031,0.1004,0.0961,0.0925,0.0854,0.0828,0.0786,0.0783,0.0752,0.0777,0.0782,0.0782,0.0784,0.078,0.0746,0.0746,0.0745,0.0745,0,0.1206,0.1201,0.1168,0.1131,0.1103,0.1073,0.1043,0.1024,0.1006,0.0977,0.0934,0.0906,0.0851,0.0807,0.0764,0.0742,0.0739,0.0738,0.0728,0.073,0.0739,0.0733,0.0827,0.0739,0.074,0.074,0.074,0.0741,0.1155,0.1126,0.1098,0.106,0.1038,0.1011,0.0981,0.0962,0.0927,0.0883,0.0877,0.083,0.0797,0.0738,0.0715,0.0677,0.0684,0.067,0.0666,0.0663,0.0661,0.0747,0.0669,0.0669,0.0669,0.0669,0.0669,0,0.1081,0.1063,0.1029,0.0989,0.096,0.0964,0.0932,0.0906,0.0866,0.0837,0.0803,0.0753,0.0711,0.0683,0.064,0.0615,0.0613,0.0604,0.0605,0.06,0.0657,0.067,0.0607,0.0607,0.0607,0.0607,0.0607,0.0607,0.1038,0.099,0.0982,0.0922,0.0904,0.086,0.0842,0.0816,0.0793,0.0738,0.0705,0.0688,0.0659,0.0614,0.0576,0.0568,0.0552,0.0543,0.0536,0.0589,0.0596,0.0602,0.0614,0.054,0.054,0.0482,0.0481,0.0481]}]]